Regional Weather Roundup
Issued by NWS Kansas City/Pleasant Hill, MO

Home | Current Version | Previous Version | Graphics & Text | Print | Product List | Glossary Off
Versions: 1 2 3 4 5 6 7 8 9 10 11 12 13 14 15 16 17 18 19 20 21 22 23 24 25 26 27 28 29 30 31 32 33 34 35 36 37 38 39 40 41 42 43 44 45 46 47 48 49 50

000
ASUS43 KEAX 220804
RWREAX

WEATHER ROUNDUP FOR EASTERN KANSAS AND NORTHWEST MISSOURI
NATIONAL WEATHER SERVICE KANSAS CITY/PLEASANT HILL MO
300 AM CDT FRI MAY 22 2015

KSZ040-057-103>105-MOZ028-029-037-043-220900-
...KANSAS CITY METROPOLITAN AREA...

CITY           SKY/WX    TMP DP  RH WIND       PRES   REMARKS
K.C. INTL      PTCLDY    51  45  79 SW6       30.22F
K.C. DOWNTOWN  CLEAR     55  45  68 SW3       30.22F
LEES SUMMIT    PTCLDY    51  44  77 W5        30.22F
OLATHE - IXD   PTCLDY    50  45  83 CALM      30.22F
OLATHE - OJC   PTCLDY    53  44  71 W3        30.21F
LAWRENCE       CLEAR     47  45  93 CALM      30.22F

$$

MOZ001>008-011>017-020>025-030>033-038>040-044>046-053-054-220900-
...NORTHERN AND CENTRAL MISSOURI...

CITY           SKY/WX    TMP DP  RH WIND       PRES   REMARKS
ST. JOSEPH     CLEAR     51  46  83 S5        30.22S
MOSBY          SUNNY     48  46  93 CALM      30.22S
WARRENSBURG    PTCLDY    50  45  81 CALM      30.22S
WHITEMAN AFB   PTCLDY    51  44  77 SW3       30.21F
CLINTON        NOT AVBL
SEDALIA        CLEAR     54  44  69 SW6       30.23F
WARSAW         NOT AVBL
CHILLICOTHE      N/A     55  44  66 CALM      30.21S
KIRKSVILLE     CLEAR     54  45  71 W7        30.19R

$$

MOZ041-047>049-056>058-063>065-088>090-097-220900-
...EASTERN AND SOUTHERN MISSOURI...

CITY           SKY/WX    TMP DP  RH WIND       PRES   REMARKS
ST. LOUIS INTL CLEAR     53  43  68 W7        30.19R
SPIRIT OF STL  CLEAR     49  44  83 CALM      30.19R
COLUMBIA       CLEAR     51  44  77 W7        30.21S
JEFFERSON CITY CLEAR     47  44  90 CALM      30.22S
ROLLA          CLEAR     45  42  89 SW8       30.21S
OSAGE BEACH    PTCLDY    45  41  87 CALM      30.23S
SPRINGFIELD    CLEAR     46  42  86 CALM      30.22S
BRANSON        CLEAR     45  43  93 CALM      30.23S
JOPLIN         CLEAR     45  44  97 E3        30.22F
WEST PLAINS    CLEAR     42  39  89 CALM      30.23

$$

IAZ060-094-KSZ022-034>040-054-083-096-NEZ052-066-093-220900-
...KANSAS...SOUTHEAST NEBRASKA AND IOWA...

CITY           SKY/WX    TMP DP  RH WIND       PRES   REMARKS
TOPEKA         CLEAR     50  48  93 CALM      30.21F
MANHATTAN      CLEAR     45  45 100 CALM      30.20F
EMPORIA        PTCLDY    45  44  97 E5        30.20F
CHANUTE        CLEAR     47  45  93 CALM      30.21F
WICHITA        MOCLDY    53  46  77 SE5       30.20R
OMAHA          PTCLDY    59  40  49 W5        30.20S
LINCOLN        MOCLDY    53  42  66 W3        30.22F
FALLS CITY     PTCLDY    51  44  77 CALM      30.20S
LAMONI         PTCLDY    54  43  66 W9        30.19R
DES MOINES     CLEAR     54  42  64 W9        30.16R

$$




USA.gov is the U.S. government's official web portal to all federal, state and local government web resources and services.